[[{"header":{"parameterUnit":"m.s-1","parameterCategory":1,"la1":30.2991,"la2":30.254,"lo1":-89.0895,"lo2":-89.0444,"dy":0.0017,"dx":0.0017,"nx":28,"ny":28,"refTime":"2024-03-11T09:00:00:Z","depth":0,"parameterNumber":2,"parameterNumberName":"U-component_of_WINDS"},"data":[0,0,0,0,0,0,0,0,0,0,0,0,0,0,0,0,0,0,0,0,0,0,0,0,0,0,0,0,0,0,0,0,0,0,0,0,0,0,0,0,0,0,0,0,0,0,0,0,0,0,0,0,0,0,0,0,0,0,-2.6717,-2.6718,0,-2.6816,-2.6817,-2.6818,-2.6716,-2.6712,-2.6708,-2.6704,-2.681,-2.6816,-2.6823,0,0,0,0,0,0,0,0,0,0,0,0,0,-2.6445,-2.6451,-2.6717,-2.6719,-2.672,-2.6815,-2.6817,-2.6818,-2.6717,-2.6712,-2.6707,-2.6703,-2.6808,-2.6815,-2.6823,0,0,0,0,0,0,0,0,0,0,0,0,0,-2.6556,-2.6452,-2.6717,-2.6681,-2.6678,-2.6815,-2.6817,-2.6819,-2.6718,-2.6712,-2.6706,-2.67,-2.6805,-2.6815,-2.6824,-2.7003,0,0,-2.6854,-2.6858,0,0,0,0,0,0,0,0,-2.6549,-2.6566,-2.6685,-2.6683,-2.6681,-2.6747,-2.6759,-2.6881,-2.6719,-2.6703,-2.6704,-2.6698,-2.6794,-2.6804,-2.6836,-2.7008,-2.7013,-2.6855,-2.6861,-2.6865,-2.6868,0,0,0,0,0,0,0,-2.6542,-2.6561,-2.6756,-2.6687,-2.6684,-2.666,-2.6669,-2.6782,-2.6781,-2.6704,-2.6697,-2.671,-2.6792,-2.6827,-2.6838,-2.7014,-2.6855,-2.6863,-2.6869,-2.6873,-2.7338,-2.7345,0,0,0,0,0,0,-2.6538,-2.6555,-2.6753,-2.6759,-2.6599,-2.667,-2.668,-2.6732,-2.6779,-2.6781,-2.6715,-2.6704,-2.6813,-2.6827,-2.6841,-2.7055,-2.6865,-2.6874,-2.688,-2.7332,-2.734,-2.7347,0,0,0,0,0,0,-2.6532,-2.6556,-2.6749,-2.6655,-2.6678,-2.6681,-2.674,-2.6737,-2.6772,-2.6787,-2.6787,-2.675,-2.6809,-2.6827,-2.6963,-2.7057,-2.6878,-2.6887,-2.7324,-2.7334,-2.7343,-2.7483,0,0,0,0,0,0,-2.6525,-2.6555,-2.6623,-2.6657,-2.6683,-2.687,-2.6746,-2.6744,-2.6789,-2.6776,-2.6821,-2.6822,-2.6806,-2.6949,-2.6973,-2.7067,-2.6895,-2.7316,-2.7329,-2.734,-2.747,-2.7497,-2.7519,0,0,0,0,0,-2.6516,-2.6659,-2.6627,-2.6651,-2.6768,-2.6875,-2.689,-2.6867,-2.6796,-2.6865,-2.6874,-2.6821,-2.7042,-2.6964,-2.699,-2.7089,-2.731,-2.7325,-2.7339,-2.746,-2.7491,-2.7518,0,0,0,0,0,0,-2.6637,-2.6663,-2.6627,-2.6786,-2.6829,-2.6858,-2.6944,-2.6901,-2.6966,-2.6952,-2.6922,-2.6933,-2.7077,-2.7096,-2.7008,-2.7264,-2.7165,-2.7185,-2.7247,-2.7278,-2.7302,-2.7296,-2.6903,0,0,0,0,0,-2.6682,-2.6766,-2.6784,-2.6923,-2.6946,-2.6941,-2.6987,-2.6965,-2.7009,-2.7027,-2.7046,-2.7092,-2.7172,-2.7225,-2.7299,-2.7471,-2.748,-2.7551,-2.7576,-2.7596,-2.7615,-2.7708,-2.774,-2.7395,-2.7395,-2.7395,0,0,-2.6777,-2.6801,-2.6857,-2.6948,-2.6978,-2.7067,-2.6957,-2.7056,-2.7122,-2.7042,-2.7172,-2.7188,-2.7237,-2.7392,-2.7461,-2.7412,-2.7711,-2.7614,-2.763,-2.7639,-2.7726,-2.7759,-2.7788,-2.7405,-2.7403,-2.7401,0,0,-2.6995,-2.7021,-2.714,-2.7172,-2.7219,-2.7214,-2.7243,-2.7278,-2.7285,-2.7413,-2.7356,-2.7434,-2.7571,-2.7609,-2.7646,-2.7876,-2.783,-2.7901,-2.8029,-2.812,-2.8148,-2.8172,-2.8255,-2.8286,-2.7919,-2.7919,-2.7919,0,-2.7108,-2.7238,-2.7206,-2.7309,-2.7352,-2.7281,-2.7401,-2.7434,-2.7504,-2.7536,-2.7478,-2.7649,-2.7677,-2.784,-2.7896,-2.7928,-2.796,-2.7897,-2.8146,-2.817,-2.8192,-2.8271,-2.8303,-2.7928,-2.7927,-2.7926,-2.7925,0,-2.7375,-2.7466,-2.7556,-2.7623,-2.7675,-2.7787,-2.7773,-2.7829,-2.7802,-2.7804,-2.7936,-2.7966,-2.8046,-2.8082,-2.8057,-2.8242,-2.821,-2.815,-2.805,-2.8234,-2.8308,-2.8338,-2.794,-2.7937,-2.7934,-2.7932,0,0,-2.7676,-2.7722,-2.7756,-2.7786,-2.7831,-2.7902,-2.8009,-2.8085,-2.8135,-2.8184,-2.8275,-2.8392,-2.8336,-2.8378,-2.8356,-2.8436,-2.8618,-2.8366,-2.8367,-2.8414,-2.8825,-2.8872,-2.8908,-2.8586,-2.8591,-2.8596,-2.8822,0,-2.7897,-2.8083,-2.8057,-2.8237,-2.8321,-2.8254,-2.8347,-2.8386,-2.839,-2.8463,-2.8467,-2.8551,-2.847,-2.8495,-2.8571,-2.858,-2.8701,-2.8563,-2.8672,-2.8677,-2.8665,-2.8946,-2.8997,-2.9208,-2.885,-2.8855,-2.8859,0,-2.8181,-2.8239,-2.8427,-2.8458,-2.8493,-2.8578,-2.8645,-2.8714,-2.8756,-2.8754,-2.88,-2.8763,-2.8872,-2.8767,-2.8917,-2.8824,-2.8866,-2.8878,-2.8885,-2.8897,-2.8781,-2.8969,-2.9275,-2.9308,-2.8904,-2.89,-2.8897,0,-2.8385,-2.851,-2.8638,-2.8665,-2.8705,-2.8766,-2.8786,-2.8821,-2.8868,-2.8927,-2.8957,-2.9028,-2.9068,-2.9123,-2.9107,-2.9032,-2.9262,-2.9155,-2.9264,-2.9265,-2.9319,-2.9316,-2.9639,-2.9342,-2.9341,-2.934,-2.934,0,-2.8636,-2.8755,-2.873,-2.881,-2.894,-2.8908,-2.9038,-2.9049,-2.9082,-2.9163,-2.9108,-2.9186,-2.9158,-2.9234,-2.9222,-2.9349,-2.9367,-2.9369,-2.9365,-2.9376,-2.9376,-2.9405,-2.9391,-2.9349,-2.9347,-2.9345,-2.9344,0,-2.8888,-2.8876,-2.9012,-2.9037,-2.9046,-2.9141,-2.9163,-2.9238,-2.9236,-2.9339,-2.9362,-2.936,-2.9447,-2.9435,-2.9532,-2.9523,-2.9682,-2.9659,-2.9668,-2.9664,-2.9774,-2.9765,-3.013,-3.0177,-2.9847,-2.985,-2.9852,0,-2.9051,-2.914,-2.9174,-2.9223,-2.9247,-2.9327,-2.9374,-2.9346,-2.9397,-2.9451,-2.952,-2.9601,-2.9665,-2.9806,-2.9814,-2.9888,-2.9868,-2.999,-2.9879,-2.9887,-2.9872,-2.9869,-2.9878,-3.0014,-3.0018,-3.0021,-3.0023,0,-2.9342,-2.9331,-2.94,-2.9467,-2.9524,-2.9576,-2.9622,-2.9666,-2.9642,-2.9703,-2.9789,-2.9839,-2.9936,-3.0019,-3.0087,-3.0108,-3.0064,-3.0057,-3.0087,-3.0101,-3.0103,-3.0105,-2.9731,-3.005,-3.0048,-3.0046,-3.0044,-3.0043,-2.9556,-2.9631,-2.9667,-2.9746,-2.9777,-2.9821,-2.9893,-2.9899,-2.997,-3.0047,-3.0025,-3.0124,-3.0163,-3.0251,-3.0279,-3.0356,-3.0312,-3.0354,-3.0365,-3.0377,-3.0391,-3.0088,-3.0368,-3.0368,-3.0367,-3.0366,-3.0366,0,-2.9846,-2.9864,-2.9936,-3.0002,-3.0064,-3.0013,-3.0061,-3.0117,-3.0204,-3.0243,-3.0306,-3.0407,-3.0485,-3.0498,-3.0573,-3.0633,-3.0614,-3.0654,-3.0651,-3.0657,-3.0426,-3.0394,-3.0668,-3.0668,-3.0668,-3.0668,-3.0668,-3.0667,-3.0004,-3.013,-3.0123,-3.0264,-3.0282,-3.0378,-3.041,-3.0451,-3.0482,-3.0595,-3.066,-3.0666,-3.0696,-3.0772,-3.0842,-3.0843,-3.0875,-3.0923,-3.0918,-3.0703,-3.0673,-3.0644,-3.0614,-3.093,-3.093,-3.1142,-3.1144,-3.1146]},{"header":{"parameterUnit":"m.s-1","parameterCategory":1,"la1":30.2991,"la2":30.254,"lo1":-89.0895,"lo2":-89.0444,"dy":0.0017,"dx":0.0017,"nx":28,"ny":28,"refTime":"2024-03-11T09:00:00:Z","depth":0,"parameterNumber":3,"parameterNumberName":"V-component_of_WINDS"},"data":[0,0,0,0,0,0,0,0,0,0,0,0,0,0,0,0,0,0,0,0,0,0,0,0,0,0,0,0,0,0,0,0,0,0,0,0,0,0,0,0,0,0,0,0,0,0,0,0,0,0,0,0,0,0,0,0,0,0,-4.1717,-4.1718,0,-4.1791,-4.1792,-4.1793,-4.173,-4.1727,-4.1725,-4.1722,-4.1794,-4.1798,-4.1802,0,0,0,0,0,0,0,0,0,0,0,0,0,-4.1516,-4.152,-4.1717,-4.1718,-4.1719,-4.1791,-4.1792,-4.1793,-4.173,-4.1727,-4.1724,-4.1721,-4.1792,-4.1797,-4.1803,0,0,0,0,0,0,0,0,0,0,0,0,0,-4.1598,-4.1522,-4.1717,-4.1697,-4.1696,-4.1791,-4.1792,-4.1793,-4.1731,-4.1727,-4.1723,-4.1719,-4.1791,-4.1797,-4.1803,-4.1922,0,0,-4.1823,-4.1826,0,0,0,0,0,0,0,0,-4.1594,-4.1606,-4.1699,-4.1698,-4.1697,-4.1747,-4.1747,-4.1836,-4.1732,-4.1717,-4.1722,-4.1718,-4.1781,-4.1788,-4.1811,-4.1925,-4.1928,-4.1824,-4.1828,-4.1831,-4.1832,0,0,0,0,0,0,0,-4.1588,-4.1602,-4.1746,-4.17,-4.1699,-4.1682,-4.1689,-4.1764,-4.177,-4.1718,-4.1714,-4.1724,-4.178,-4.1804,-4.1812,-4.1929,-4.1824,-4.1829,-4.1833,-4.1836,-4.2142,-4.2146,0,0,0,0,0,0,-4.1585,-4.1598,-4.1744,-4.1749,-4.1635,-4.1689,-4.1697,-4.1735,-4.1769,-4.1771,-4.1727,-4.1721,-4.1795,-4.1804,-4.1814,-4.1954,-4.1831,-4.1837,-4.184,-4.2137,-4.2143,-4.2147,0,0,0,0,0,0,-4.1581,-4.1599,-4.1741,-4.1672,-4.1689,-4.1696,-4.174,-4.1739,-4.1763,-4.1776,-4.1776,-4.1751,-4.1793,-4.1805,-4.1895,-4.1955,-4.184,-4.1845,-4.2132,-4.2139,-4.2145,-4.2234,0,0,0,0,0,0,-4.1576,-4.1598,-4.1644,-4.1674,-4.1693,-4.1823,-4.1744,-4.1743,-4.1775,-4.1767,-4.1799,-4.18,-4.179,-4.1886,-4.1902,-4.1962,-4.1851,-4.2127,-4.2135,-4.2143,-4.2226,-4.2243,-4.2258,0,0,0,0,0,-4.1569,-4.1666,-4.1647,-4.1665,-4.1751,-4.1827,-4.1837,-4.1826,-4.178,-4.1826,-4.1834,-4.1799,-4.1946,-4.1896,-4.1913,-4.1976,-4.2123,-4.2133,-4.2142,-4.2219,-4.224,-4.2257,0,0,0,0,0,0,-4.1643,-4.167,-4.1649,-4.1759,-4.1791,-4.1816,-4.1873,-4.1848,-4.1893,-4.1883,-4.1865,-4.1873,-4.1968,-4.1981,-4.1924,-4.2091,-4.2027,-4.204,-4.208,-4.2099,-4.2115,-4.211,-4.1856,0,0,0,0,0,-4.1672,-4.1733,-4.1752,-4.1847,-4.1865,-4.1866,-4.1899,-4.1887,-4.1919,-4.1931,-4.1946,-4.1977,-4.203,-4.2065,-4.2115,-4.2227,-4.2232,-4.2279,-4.2295,-4.2308,-4.2319,-4.2378,-4.2399,-4.2178,-4.2178,-4.2178,0,0,-4.1733,-4.1755,-4.1794,-4.1863,-4.1886,-4.1947,-4.1878,-4.1946,-4.1991,-4.1941,-4.2028,-4.2039,-4.2072,-4.2174,-4.2219,-4.2188,-4.2381,-4.232,-4.233,-4.2335,-4.239,-4.2411,-4.243,-4.2185,-4.2184,-4.2183,0,0,-4.1875,-4.1899,-4.198,-4.2005,-4.2042,-4.2042,-4.2061,-4.209,-4.2096,-4.2182,-4.2146,-4.2197,-4.229,-4.2314,-4.2339,-4.2488,-4.2458,-4.2505,-4.2587,-4.2644,-4.2662,-4.2677,-4.2729,-4.2748,-4.2516,-4.2517,-4.2517,0,-4.1946,-4.2039,-4.2025,-4.2096,-4.2126,-4.2084,-4.2165,-4.2189,-4.224,-4.2261,-4.2225,-4.2338,-4.2358,-4.2464,-4.25,-4.2522,-4.2542,-4.2501,-4.2661,-4.2676,-4.269,-4.2739,-4.2759,-4.2522,-4.2521,-4.2521,-4.252,0,-4.2124,-4.2188,-4.2249,-4.23,-4.2336,-4.2412,-4.2407,-4.2446,-4.243,-4.2434,-4.2521,-4.2542,-4.2595,-4.2619,-4.2604,-4.2722,-4.2701,-4.2663,-4.2599,-4.2717,-4.2763,-4.2782,-4.253,-4.2528,-4.2526,-4.2525,0,0,-4.2316,-4.2357,-4.238,-4.2402,-4.2438,-4.2487,-4.2559,-4.2611,-4.2644,-4.2679,-4.2738,-4.2816,-4.2781,-4.2809,-4.2795,-4.2846,-4.2962,-4.2801,-4.2802,-4.283,-4.3092,-4.312,-4.3143,-4.2941,-4.2945,-4.2948,-4.3089,0,-4.246,-4.2588,-4.2576,-4.2696,-4.2754,-4.2715,-4.2777,-4.2805,-4.281,-4.2858,-4.2862,-4.2917,-4.2867,-4.2883,-4.2931,-4.2938,-4.3014,-4.2927,-4.2994,-4.2997,-4.2988,-4.3167,-4.3198,-4.333,-4.3107,-4.311,-4.3112,0,-4.2645,-4.2688,-4.2814,-4.284,-4.2864,-4.2921,-4.2967,-4.3014,-4.3044,-4.3043,-4.3074,-4.3051,-4.3122,-4.3055,-4.3151,-4.3092,-4.3118,-4.3125,-4.313,-4.3136,-4.3062,-4.3177,-4.3372,-4.3392,-4.3141,-4.3138,-4.3136,0,-4.2772,-4.2861,-4.2948,-4.2967,-4.3,-4.3041,-4.3056,-4.3082,-4.3113,-4.3152,-4.3172,-4.3219,-4.3245,-4.328,-4.327,-4.3223,-4.3368,-4.3301,-4.3368,-4.3368,-4.3401,-4.3399,-4.3602,-4.3418,-4.3418,-4.3417,-4.3417,0,-4.2933,-4.3012,-4.3005,-4.3059,-4.3144,-4.3129,-4.3214,-4.3224,-4.3247,-4.33,-4.3268,-4.3318,-4.3301,-4.335,-4.3342,-4.3422,-4.3434,-4.3434,-4.3431,-4.3437,-4.3437,-4.3454,-4.3445,-4.3423,-4.3422,-4.3421,-4.342,0,-4.3091,-4.3089,-4.3181,-4.3204,-4.3211,-4.3274,-4.3292,-4.3341,-4.3343,-4.341,-4.3425,-4.3426,-4.3482,-4.3475,-4.3537,-4.3531,-4.363,-4.3616,-4.3621,-4.3617,-4.3685,-4.3678,-4.3906,-4.3935,-4.3733,-4.3735,-4.3736,0,-4.3194,-4.3254,-4.3283,-4.3317,-4.3335,-4.339,-4.3422,-4.3408,-4.3442,-4.3479,-4.3523,-4.3576,-4.3617,-4.3707,-4.3712,-4.3759,-4.3745,-4.3822,-4.3752,-4.3756,-4.3746,-4.3742,-4.3747,-4.3836,-4.3838,-4.384,-4.3842,0,-4.3377,-4.3373,-4.3421,-4.3469,-4.3508,-4.3545,-4.3578,-4.3607,-4.3595,-4.3635,-4.3692,-4.3724,-4.3787,-4.3838,-4.3882,-4.3895,-4.3866,-4.3863,-4.3881,-4.3888,-4.3888,-4.3888,-4.3658,-4.3858,-4.3857,-4.3855,-4.3855,-4.3854,-4.351,-4.3561,-4.3589,-4.3643,-4.3666,-4.3698,-4.3745,-4.3751,-4.3799,-4.385,-4.3838,-4.3902,-4.3927,-4.3982,-4.4,-4.4048,-4.402,-4.4046,-4.4053,-4.4059,-4.4067,-4.3881,-4.4056,-4.4055,-4.4055,-4.4055,-4.4054,0,-4.3691,-4.3707,-4.3757,-4.3804,-4.3846,-4.3816,-4.385,-4.3887,-4.3944,-4.3971,-4.4012,-4.4076,-4.4126,-4.4135,-4.4181,-4.4218,-4.4206,-4.4231,-4.4228,-4.4231,-4.409,-4.407,-4.424,-4.424,-4.424,-4.424,-4.424,-4.4239,-4.379,-4.3874,-4.3873,-4.3967,-4.3981,-4.4044,-4.4066,-4.4094,-4.4115,-4.4189,-4.423,-4.4236,-4.4255,-4.4302,-4.4346,-4.4347,-4.4365,-4.4395,-4.4391,-4.426,-4.4241,-4.4223,-4.4204,-4.44,-4.44,-4.4528,-4.4529,-4.453]}]]